MST,Max TemperatureF,Mean TemperatureF,Min TemperatureF,Max Dew PointF,MeanDew PointF,Min DewpointF,Max Humidity, Mean Humidity, Min Humidity, Max Sea Level PressureIn, Mean Sea Level PressureIn, Min Sea Level PressureIn, Max VisibilityMiles, Mean VisibilityMiles, Min VisibilityMiles, Max Wind SpeedMPH, Mean Wind SpeedMPH, Max Gust SpeedMPH,PrecipitationIn, CloudCover, Events, WindDirDegrees
2012-1-1,35,21,6,18,6,-4,84,52,20,30.78,30.60,30.34,10,10,10,36,13,43,0.00,1,,298
2012-1-2,38,20,2,16,7,-2,86,59,32,30.74,30.52,30.09,10,10,10,15,6,17,0.00,0,,143
2012-1-3,64,38,12,26,21,8,88,54,20,30.24,30.08,29.99,10,10,10,35,13,47,0.00,0,,291
2012-1-4,62,44,26,26,23,21,81,52,22,30.25,30.16,30.04,10,10,10,18,10,22,0.00,0,,270
2012-1-5,74,54,33,27,24,20,64,39,14,30.02,29.85,29.73,10,10,10,22,8,28,0.00,0,,292
2012-1-6,48,33,18,22,16,10,67,48,28,30.14,30.04,29.84,10,10,10,31,12,37,0.00,1,,282
2012-1-7,41,28,14,21,16,10,92,66,40,30.27,30.20,30.13,10,10,10,10,4,13,0.00,2,,264
2012-1-8,44,29,14,22,16,14,92,63,33,30.28,30.21,30.12,10,10,10,9,6,12,0.00,1,,262
2012-1-9,59,42,24,29,24,17,74,53,31,30.16,30.08,30.01,10,10,10,21,11,25,0.00,0,,276
2012-1-10,58,44,30,34,28,24,78,54,30,29.99,29.83,29.67,10,8,2,30,11,39,T,3,Rain-Snow,295
2012-1-11,33,21,8,30,17,-3,92,73,53,30.29,30.10,29.87,10,8,1,38,23,47,0.01,7,Snow,328
2012-1-12,29,14,-2,22,6,-8,81,62,42,30.30,30.18,30.00,10,10,9,21,8,28,T,5,Snow,316
2012-1-13,46,29,11,24,19,9,92,67,41,30.07,29.98,29.81,10,10,9,35,12,44,T,4,Snow,282
2012-1-14,45,32,19,20,16,12,81,55,28,30.15,30.00,29.73,10,10,10,20,9,25,0.00,1,,252
2012-1-15,62,38,13,22,16,9,88,53,17,29.94,29.75,29.56,10,10,10,28,10,35,0.00,0,,306
2012-1-16,25,16,6,13,5,1,83,72,61,30.33,30.07,29.94,10,4,1,17,12,23,0.07,6,Snow,351
2012-1-17,17,2,-14,7,-4,-15,95,78,61,30.42,30.27,29.98,10,10,4,12,5,15,T,1,Snow,358
2012-1-18,25,8,-9,9,-2,-10,90,73,56,30.15,30.00,29.82,10,10,10,31,10,41,0.00,4,,336
2012-1-19,7,2,-4,2,-5,-11,83,74,65,30.22,30.08,29.87,10,9,5,16,8,20,0.01,6,Snow,92
2012-1-20,13,7,0,4,1,-4,88,75,61,30.25,30.05,29.73,10,9,4,15,7,18,T,5,Snow,21
2012-1-21,48,25,2,33,20,0,91,74,56,30.02,29.54,29.26,10,10,10,13,5,16,T,3,Rain,132
2012-1-22,40,34,28,37,30,23,100,80,59,29.82,29.56,29.24,10,8,2,35,16,44,0.06,8,Rain-Snow,321
2012-1-23,42,28,14,23,18,14,84,63,41,29.97,29.91,29.83,10,10,10,14,5,18,0.00,0,,333
2012-1-24,39,26,13,36,26,10,100,86,72,30.25,30.14,29.97,10,8,0,10,5,12,0.06,4,Fog-Rain,297
2012-1-25,52,33,13,31,23,13,92,65,38,30.17,29.94,29.77,10,10,10,18,7,23,0.00,2,,259
2012-1-26,49,39,29,32,22,17,76,53,29,30.05,29.90,29.68,10,10,10,20,9,25,T,2,,235
2012-1-27,38,28,17,29,20,11,85,60,35,30.26,30.06,29.72,10,10,10,37,19,49,T,2,,304
2012-1-28,41,29,17,12,10,8,74,51,27,30.20,30.18,30.15,10,10,10,33,14,43,0.00,0,,282
2012-1-29,55,38,21,26,20,14,77,55,32,30.18,29.95,29.75,10,10,10,13,5,17,0.00,6,,218
2012-1-30,59,45,30,27,23,21,72,48,24,29.74,29.67,29.55,10,10,10,18,9,24,0.00,0,,273
2012-1-31,55,41,27,32,24,19,78,53,28,30.06,29.93,29.73,10,10,10,28,12,33,0.00,0,,292